This is the latest recevied weather packets stored in our database for station/object DB0TGO-13. If no packets are shown the sender has not sent any weather packets the latest 10 day(s).
| Time | Temp. | Humidity | Pressure | Rain* | Wind** | Luminosity | Snow |
|---|---|---|---|---|---|---|---|
| 1777903202 | 22.22° C | 51% | 1006.6 hPa | - | - | - | - |
| 1777902302 | 21.67° C | 46% | 1006.7 hPa | - | - | - | - |
| 1777901402 | 21.67° C | 46% | 1006.7 hPa | - | - | - | - |
| 1777900502 | 21.11° C | 50% | 1006.8 hPa | - | - | - | - |
| 1777899603 | 21.11° C | 50% | 1006.8 hPa | - | - | - | - |
| 1777898702 | 21.11° C | 48% | 1006.8 hPa | - | - | - | - |
| 1777897802 | 21.11° C | 48% | 1006.8 hPa | - | - | - | - |
| 1777896902 | 21.11° C | 49% | 1006.9 hPa | - | - | - | - |
| 1777896003 | 21.11° C | 49% | 1006.9 hPa | - | - | - | - |
| 1777895102 | 21.11° C | 50% | 1007.1 hPa | - | - | - | - |
| 1777894202 | 21.11° C | 50% | 1007.1 hPa | - | - | - | - |
| 1777893302 | 21.11° C | 50% | 1007.3 hPa | - | - | - | - |
| 1777892402 | 21.11° C | 50% | 1007.3 hPa | - | - | - | - |
| 1777891502 | 20.56° C | 54% | 1007.3 hPa | - | - | - | - |
| 1777890602 | 20.56° C | 54% | 1007.3 hPa | - | - | - | - |
| 1777889703 | 20.56° C | 51% | 1007.4 hPa | - | - | - | - |
| 1777888802 | 20.56° C | 51% | 1007.4 hPa | - | - | - | - |
| 1777887902 | 20.56° C | 55% | 1007.4 hPa | - | - | - | - |
| 1777887002 | 20.56° C | 55% | 1007.4 hPa | - | - | - | - |
| 1777886103 | 18.89° C | 58% | 1007.4 hPa | - | - | - | - |
| 1777885202 | 18.89° C | 58% | 1007.4 hPa | - | - | - | - |
| 1777884302 | 19.44° C | 59% | 1007.3 hPa | - | - | - | - |
| 1777883403 | 19.44° C | 59% | 1007.3 hPa | - | - | - | - |
| 1777882502 | 18.33° C | 62% | 1007 hPa | - | - | - | - |
| 1777881602 | 18.33° C | 62% | 1007 hPa | - | - | - | - |
* Rain since midnight (hover to see other rain measurements)
** Current wind speed in m/s (hover to see current wind gust speed)